Location: Hurstbourne Priors
(51.2000°N, 1.3667°W)
Time: 22:19:04
(UTC+00:00)

Altair - Pass Details

Date: 12 April 2021
Orbit: 1501 x 1683 km, 47.2° (Epoch: 13 May)

Event Time Altitude Azimuth Distance (km) Brightness Sun altitude
Rises 10:21:27 0° 258° (WSW) 4,780 9.9 42.5°
Reaches altitude 10° 10:24:35 10° 257° (WSW) 3,771 9.5 42.8°
Maximum altitude 10:34:01 70° 176° (S) 1,614 8.9 43.6°
Drops below altitude 10° 10:43:09 10° 95° (E) 3,663 10.0 44.3°
Sets 10:46:09 0° 94° (E) 4,637 10.3 44.6°
